User: anonymous   Login
Location: Mentone
(34.5413°N, 85.5351°W)
Time: 08:52:34
(UTC-06:00)
Language:

ADEOS Rocket - Orbit

View from above orbital plane
View from above orbital plane
View from above satellite
View from above satellite

Ground track
Ground track

The orbit data is extracted from the following two-line orbital elements,

1 24279U 96046C   17347.53423138 -.00000036  00000-0  50161-7 0  9990
2 24279  98.7682 269.4355 0299727 191.5944 257.2267 13.47097409 48398
Epoch (UTC): 13 December 2017 12:49:17
Eccentricity: 0.0299727
inclination: 98.7682°
perigee height: 859 km
apogee height: 1306 km
right ascension of ascending node: 269.4355°
argument of perigee: 191.5944°
revolutions per day: 13.47097409
mean anomaly at epoch: 257.2267°
orbit number at epoch: 4839

The dashed part of the orbit path shows where the satellite is in the earth's shadow,  

DLR